| time (UTC) | temp C | wind direction | speed KPH | gust KPH | rain 1hr cm | rain 24hr cm | rain mn cm | humidity % | barometer mb |
| 20260507134600 | 5 | 279 | 0.0 | 0.0 | 0.00 | 0.00 | 0.00 | 46 | 1015.1 |
| 20260507133053 | -17 | 0.0 | 0.0 | 0.00 | 0.00 | 0.00 | 1014.7 | ||
| 20260507131547 | -17 | 0.0 | 0.0 | 0.00 | 0.00 | 0.00 | 1014.8 | ||
| 20260507130057 | -17 | 0.0 | 0.0 | 0.00 | 0.00 | 0.00 | 1015.1 | ||
| 20260507124549 | -17 | 0.0 | 0.0 | 0.00 | 0.00 | 0.00 | 1015.4 | ||
| 20260507123041 | -17 | 0.0 | 0.0 | 0.00 | 0.00 | 0.00 | 1015.8 | ||
| 20260507121531 | 2 | 275 | 0.0 | 0.0 | 0.00 | 0.00 | 0.00 | 65 | 1016.1 |
| 20260507120035 | 3 | 277 | 0.0 | 0.0 | 0.00 | 0.00 | 0.00 | 62 | 1016.3 |
| 20260507114528 | 2 | 280 | 0.0 | 1.6 | 0.00 | 0.00 | 0.00 | 64 | 1016.3 |
| 20260507113026 | 2 | 287 | 0.0 | 0.0 | 0.00 | 0.00 | 0.00 | 65 | 1016.4 |
| 20260507111526 | 2 | 264 | 0.0 | 0.0 | 0.00 | 0.00 | 0.00 | 66 | 1016.5 |
| 20260507110027 | 2 | 281 | 0.0 | 1.6 | 0.00 | 0.00 | 0.00 | 65 | 1016.7 |
| 20260507104524 | 2 | 280 | 0.0 | 0.0 | 0.00 | 0.00 | 0.00 | 68 | 1016.6 |
| 20260507103023 | 2 | 284 | 0.0 | 1.6 | 0.00 | 0.00 | 0.00 | 70 | 1016.7 |
| 20260507101533 | 2 | 270 | 0.0 | 1.6 | 0.00 | 0.00 | 0.00 | 70 | 1016.7 |
| 20260507100023 | 2 | 277 | 0.0 | 0.0 | 0.00 | 0.00 | 0.00 | 70 | 1016.9 |
| 20260507094519 | 2 | 279 | 0.0 | 0.0 | 0.00 | 0.00 | 0.00 | 69 | 1017.0 |
| 20260507093019 | 2 | 283 | 0.0 | 0.0 | 0.00 | 0.00 | 0.00 | 71 | 1017.1 |
| 20260507091519 | 2 | 279 | 0.0 | 0.0 | 0.00 | 0.00 | 0.00 | 68 | 1017.2 |
| 20260507090018 | 2 | 279 | 0.0 | 0.0 | 0.00 | 0.00 | 0.00 | 68 | 1017.2 |
| 20260507084516 | 2 | 283 | 0.0 | 0.0 | 0.00 | 0.00 | 0.00 | 69 | 1017.1 |
| 20260507083014 | 2 | 277 | 0.0 | 0.0 | 0.00 | 0.00 | 0.00 | 69 | 1017.2 |
| 20260507081517 | 3 | 279 | 0.0 | 0.0 | 0.00 | 0.00 | 0.00 | 68 | 1017.3 |
| 20260507080013 | 3 | 275 | 0.0 | 1.6 | 0.00 | 0.00 | 0.00 | 68 | 1017.4 |
| 20260507074510 | 3 | 283 | 0.0 | 1.6 | 0.00 | 0.00 | 0.00 | 67 | 1017.5 |
| 20260507073009 | 3 | 277 | 0.0 | 1.6 | 0.00 | 0.00 | 0.00 | 64 | 1017.5 |
| 20260507071511 | 4 | 276 | 0.0 | 0.0 | 0.00 | 0.00 | 0.00 | 63 | 1017.5 |
| 20260507070012 | 3 | 279 | 0.0 | 1.6 | 0.00 | 0.00 | 0.00 | 66 | 1017.6 |
| 20260507064510 | 4 | 282 | 0.0 | 1.6 | 0.00 | 0.00 | 0.00 | 66 | 1017.7 |
| 20260507063010 | 3 | 281 | 0.0 | 1.6 | 0.00 | 0.00 | 0.00 | 68 | 1017.5 |
| 20260507061509 | 4 | 277 | 0.0 | 1.6 | 0.00 | 0.00 | 0.00 | 67 | 1017.5 |
| 20260507060017 | 4 | 277 | 0.0 | 1.6 | 0.00 | 0.00 | 0.00 | 67 | 1017.4 |
| 20260507054509 | 4 | 279 | 1.6 | 3.2 | 0.00 | 0.00 | 0.00 | 68 | 1017.4 |
| 20260507053009 | 4 | 280 | 0.0 | 1.6 | 0.00 | 0.00 | 0.00 | 66 | 1017.4 |
| 20260507051509 | 5 | 279 | 0.0 | 0.0 | 0.00 | 0.00 | 0.00 | 66 | 1017.3 |
| 20260507050009 | 5 | 280 | 0.0 | 3.2 | 0.00 | 0.00 | 0.00 | 66 | 1017.1 |
| 20260507044506 | 5 | 279 | 1.6 | 3.2 | 0.00 | 0.00 | 0.00 | 64 | 1017.0 |
| 20260507043006 | 6 | 284 | 0.0 | 1.6 | 0.00 | 0.00 | 0.00 | 63 | 1016.8 |
| 20260507041518 | 6 | 282 | 0.0 | 1.6 | 0.00 | 0.00 | 0.00 | 60 | 1016.6 |
| 20260507040006 | 7 | 275 | 0.0 | 0.0 | 0.00 | 0.00 | 0.00 | 57 | 1016.4 |
| 20260507034505 | 7 | 275 | 0.0 | 1.6 | 0.00 | 0.00 | 0.00 | 59 | 1016.3 |
| 20260507033004 | 8 | 282 | 0.0 | 1.6 | 0.00 | 0.00 | 0.00 | 54 | 1016.1 |
| 20260507031503 | 9 | 282 | 0.0 | 3.2 | 0.00 | 0.00 | 0.00 | 53 | 1015.9 |
| 20260507030004 | 10 | 275 | 0.0 | 1.6 | 0.00 | 0.00 | 0.00 | 48 | 1015.6 |
| 20260507024503 | 11 | 276 | 0.0 | 1.6 | 0.00 | 0.00 | 0.00 | 46 | 1015.5 |
| 20260507023003 | 12 | 265 | 0.0 | 0.0 | 0.00 | 0.00 | 0.00 | 42 | 1015.4 |
| 20260507021502 | 13 | 267 | 0.0 | 3.2 | 0.00 | 0.00 | 0.00 | 40 | 1015.4 |
| 20260507020002 | 15 | 44 | 0.0 | 8.0 | 0.00 | 0.00 | 0.00 | 32 | 1015.3 |
| 20260507014504 | 15 | 65 | 0.0 | 6.4 | 0.00 | 0.00 | 0.00 | 32 | 1015.4 |
| 20260507013002 | 16 | 59 | 1.6 | 11.3 | 0.00 | 0.00 | 0.00 | 31 | 1015.4 |
| 20260507011603 | 16 | 225 | 1.6 | 14.5 | 0.00 | 0.00 | 0.00 | 31 | 1015.4 |
| 20260507010059 | 17 | 46 | 3.2 | 8.0 | 0.00 | 0.00 | 0.00 | 30 | 1015.6 |
| 20260507004558 | 16 | 155 | 1.6 | 8.0 | 0.00 | 0.00 | 0.00 | 31 | 1015.7 |
| 20260507003057 | 16 | 126 | 1.6 | 6.4 | 0.00 | 0.00 | 0.00 | 33 | 1015.7 |
| 20260507001558 | 16 | 69 | 1.6 | 11.3 | 0.00 | 0.00 | 0.00 | 34 | 1015.7 |
| 20260507000056 | 16 | 87 | 1.6 | 14.5 | 0.00 | 0.00 | 0.00 | 33 | 1015.7 |
| 20260506234602 | 16 | 300 | 6.4 | 24.1 | 0.00 | 0.00 | 0.00 | 32 | 1015.7 |
| 20260506233058 | 16 | 114 | 1.6 | 6.4 | 0.00 | 0.00 | 0.00 | 32 | 1015.8 |
| 20260506231559 | 17 | 22 | 0.0 | 14.5 | 0.00 | 0.00 | 0.00 | 32 | 1016.0 |
| 20260506230058 | 16 | 145 | 1.6 | 16.1 | 0.00 | 0.00 | 0.00 | 32 | 1016.0 |
| 20260506224552 | 16 | 69 | 6.4 | 14.5 | 0.00 | 0.00 | 0.00 | 33 | 1016.2 |
| 20260506223055 | 16 | 284 | 1.6 | 11.3 | 0.00 | 0.00 | 0.00 | 31 | 1016.4 |
| 20260506221548 | 16 | 77 | 4.8 | 20.9 | 0.00 | 0.00 | 0.00 | 32 | 1016.7 |
| 20260506220045 | 17 | 327 | 1.6 | 8.0 | 0.00 | 0.00 | 0.00 | 32 | 1016.8 |
| 20260506214545 | 16 | 74 | 3.2 | 8.0 | 0.00 | 0.00 | 0.00 | 35 | 1017.1 |
| 20260506213102 | 15 | 78 | 4.8 | 16.1 | 0.00 | 0.03 | 0.00 | 36 | 1017.5 |
| 20260506211554 | 16 | 35 | 0.0 | 12.9 | 0.00 | 0.03 | 0.00 | 36 | 1017.6 |
| 20260506210040 | 15 | 27 | 1.6 | 12.9 | 0.00 | 0.03 | 0.00 | 37 | 1017.7 |
| 20260506204547 | 15 | 67 | 3.2 | 25.7 | 0.00 | 0.03 | 0.00 | 39 | 1018.0 |
| 20260506203045 | 15 | 49 | 4.8 | 11.3 | 0.00 | 0.13 | 0.00 | 37 | 1017.9 |
| 20260506201554 | 15 | 57 | 6.4 | 14.5 | 0.00 | 0.13 | 0.00 | 38 | 1018.2 |
| 20260506200039 | 15 | 323 | 1.6 | 14.5 | 0.00 | 0.13 | 0.00 | 39 | 1018.4 |
| 20260506194543 | 16 | 86 | 1.6 | 9.7 | 0.00 | 0.13 | 0.00 | 37 | 1018.6 |
| 20260506193038 | 15 | 126 | 1.6 | 11.3 | 0.00 | 0.33 | 0.00 | 38 | 1018.9 |
| 20260506191540 | 13 | 323 | 0.0 | 8.0 | 0.00 | 0.33 | 0.00 | 42 | 1019.1 |
| 20260506190032 | 12 | 340 | 0.0 | 12.9 | 0.00 | 0.33 | 0.00 | 43 | 1019.2 |
| 20260506184533 | 13 | 262 | 0.0 | 8.0 | 0.00 | 0.33 | 0.00 | 40 | 1019.4 |
| 20260506183041 | 13 | 24 | 1.6 | 11.3 | 0.00 | 0.38 | 0.00 | 42 | 1019.4 |
| 20260506181530 | 13 | 71 | 4.8 | 17.7 | 0.00 | 0.38 | 0.00 | 41 | 1019.5 |
| 20260506180035 | 12 | 80 | 4.8 | 24.1 | 0.00 | 0.38 | 0.00 | 41 | 1019.6 |
| 20260506174527 | 12 | 103 | 0.0 | 14.5 | 0.00 | 0.38 | 0.00 | 45 | 1019.7 |
| 20260506173027 | 11 | 15 | 4.8 | 11.3 | 0.00 | 0.38 | 0.00 | 46 | 1019.7 |
| 20260506171530 | 12 | 38 | 4.8 | 16.1 | 0.00 | 0.38 | 0.00 | 44 | 1019.8 |
| 20260506170025 | 12 | 181 | 4.8 | 11.3 | 0.00 | 0.38 | 0.00 | 44 | 1019.7 |
| 20260506164525 | 11 | 57 | 1.6 | 11.3 | 0.00 | 0.38 | 0.00 | 47 | 1019.7 |
| 20260506163024 | 11 | 86 | 1.6 | 12.9 | 0.00 | 0.38 | 0.00 | 48 | 1019.7 |
| 20260506161524 | 11 | 61 | 3.2 | 8.0 | 0.00 | 0.38 | 0.00 | 49 | 1019.6 |
| 20260506160022 | 11 | 165 | 0.0 | 8.0 | 0.00 | 0.38 | 0.00 | 48 | 1019.4 |
| 20260506154523 | 11 | 131 | 3.2 | 14.5 | 0.00 | 0.38 | 0.00 | 47 | 1019.3 |
| 20260506153021 | 11 | 77 | 3.2 | 9.7 | 0.00 | 0.38 | 0.00 | 50 | 1019.3 |
| 20260506151519 | 10 | 20 | 0.0 | 3.2 | 0.00 | 0.38 | 0.00 | 56 | 1019.3 |
| 20260506150015 | 10 | 91 | 0.0 | 1.6 | 0.00 | 0.38 | 0.00 | 56 | 1019.4 |
| 20260506144509 | 8 | 43 | 0.0 | 0.0 | 0.00 | 0.38 | 0.00 | 60 | 1019.1 |
| 20260506143012 | 6 | 284 | 0.0 | 0.0 | 0.00 | 0.38 | 0.00 | 73 | 1019.0 |
| 20260506141501 | 3 | 282 | 0.0 | 0.0 | 0.00 | 0.38 | 0.00 | 82 | 1018.7 |
| 20260506140059 | -17 | 0.0 | 0.0 | 0.00 | 0.38 | 0.00 | 1018.5 |